[1] CMS-20160218.exe 2019-11-01 14:59:42 32 MB
[2] Excel2007_Pack.rar 2019-11-01 14:59:41 180.01 MB
[3] Ghost2009.exe 2019-11-01 14:59:38 5.23 MB
[4] ad 2019-11-01 14:59:38 0 B
[5] bixolon_opos_driver_setup_en_v4.2.14.zip 2019-11-01 14:59:38 4.52 MB
[6] teamviewer3.exe 2019-11-01 14:59:38 1.04 MB
[7] 去除箱的.txt 2019-11-01 14:59:38 314 B
[8] DSP420.rar 2019-11-01 14:59:37 3.41 MB
[9] Office2003.exe 2019-11-01 14:59:37 83 MB
[10] bixolon_vcom_for_usb_v1.0.10.2_v2.0.11.2.zip 2019-11-01 14:59:37 8.28 MB
[11] xp.exe 2019-11-01 14:59:37 96.43 KB
[12] GP80_USB_VIRTUAL_COM.rar 2019-11-01 14:59:34 29.43 KB
[13] 20090819 盘点机使用说明.doc 2019-11-01 14:59:33 538 KB
[14] 5x13-Texto - shuangzhi.rdlc 2019-11-01 14:59:33 6.77 KB
[15] DSP.exe 2019-11-01 14:59:33 27 KB
[16] UPOS4.0.7.exe 2019-11-01 14:59:33 11.11 MB
[17] Win10安装软件提示“你必须取消阻止该发布者才能运行此软件”解决方法.reg 2019-11-01 14:59:33 536 B
[18] no_modifica_fecha.txt 2019-11-01 14:59:33 54 B
[19] 数据损坏终极修复语句.sql 2019-11-01 14:59:33 2.02 KB
[20] 用组策略来禁止修改系统时间的方法.doc 2019-11-01 14:59:33 58 KB
[21] 负库存清零语句.txt 2019-11-01 14:59:33 69 B
[22] pciDrv.zip 2019-11-01 14:59:32 503.88 KB
[23] 单据处理人员使用说明.doc 2019-11-01 14:59:32 320.5 KB
[24] Ghostexp.exe 2019-11-01 14:59:31 3.38 MB
[25] iCart15.rar 2019-11-01 14:59:23 660.33 KB
[26] 1018.exe 2019-11-01 14:59:22 3.54 MB
[27] 3x9-code128.rdlc 2019-11-01 14:59:22 8.4 KB
[28] TD5130路由器配置教程.doc 2019-11-01 14:59:22 505 KB
[29] 把USB打印机映射到LPT2端口.rar 2019-11-01 14:59:22 4.25 KB
[30] HDD_dvr_h.264_player.rar 2019-11-01 14:59:21 7.36 MB
[31] Thunder.exe 2019-11-01 14:59:21 23.18 MB
[32] 光影魔术手.exe 2019-11-01 14:59:21 15.1 MB
[33] tienda_Sql.txt 2019-11-01 14:59:20 27 B
[34] vMEyeCloud(v1.4.0).apk 2019-11-01 14:59:20 2.89 MB
[35] Brother闪灯故障复位步骤.txt 2019-11-01 14:59:19 143 B
[36] DVR_IE.exe 2019-11-01 14:59:19 1.85 MB
[37] Nota.cmd 2019-11-01 14:59:19 39 B
[38] USB_COM_Driver_220ii.rar 2019-11-01 14:59:19 29.58 KB
[39] densenVSbohao.reg 2019-11-01 14:59:19 216 B
[40] dsAlmacen.ipa 2019-11-01 14:59:19 1.52 MB
[41] dsSync.msi 2019-11-01 14:59:19 1.11 MB
[42] 20140319 SRP-350II USB打印机OPOS驱动设置步骤.doc 2019-11-01 14:59:18 480.5 KB
[43] OPOS_4.2.15.exe 2019-11-01 14:59:18 6.31 MB
[44] SRP-350_V3.1.9E.exe 2019-11-01 14:59:18 3.17 MB
[45] dsOrderTabletPlus.apk 2019-11-01 14:59:18 817.01 KB
[46] ds_shopAL.rar 2019-11-01 14:59:18 4.31 MB
[47] fw6688.reg 2019-11-01 14:59:18 170.69 KB
[48] AA_v3.exe 2019-11-01 14:59:17 755.49 KB
[49] USB_Driver_posbank_A10.rar 2019-11-01 14:59:17 3.18 MB
[50] cpeg.txt 2019-11-01 14:59:17 236 B
[51] 国华科技-转数据.txt 2019-11-01 14:59:17 240 B
[52] 360sd.exe 2019-11-01 14:59:16 28.33 MB
[53] A10_MiniPrinter_v1.5.2_x64_en.exe 2019-11-01 14:59:16 2.88 MB
[54] excel2017drv.exe 2019-11-01 14:59:16 25.41 MB
[55] winrar32bit.exe 2019-11-01 14:59:16 1.54 MB
[56] A10.exe 2019-11-01 14:59:15 2.13 MB
[57] DemoTPVv.apk 2019-11-01 14:59:15 1.56 MB
[58] SQL express 2014.txt 2019-11-01 14:59:15 760 B
[59] mini_tools.rar 2019-11-01 14:59:15 15.74 MB
[60] 3389-6688-2.reg 2019-11-01 14:59:14 570 B
[61] NetFxRepairTool.exe 2019-11-01 14:59:14 858.49 KB
[62] WizTree.exe 2019-11-01 14:59:14 1.64 MB
[63] es.densen.core.apk 2019-11-01 14:59:14 50.64 MB
[64] google-play-store.apk 2019-11-01 14:59:14 17.98 MB
[65] test2.PNG 2019-11-01 14:59:14 72.2 KB
[66] 20101122 百汇数据导入方法.txt 2019-11-01 14:59:13 222 B
[67] 检查结帐后编辑再删除的单据.doc 2019-11-01 14:59:13 28.5 KB
[68] jiang xiao Order.rar 2019-11-01 14:59:12 256.39 KB
[69] 20091002 多点远程支持说明.doc 2019-11-01 14:59:11 22.5 KB
[70] PL2303_Prolific_v1.7.0.rar 2019-11-01 14:59:11 2.08 MB
[71] SamsungLaserUniversal.exe 2019-11-01 14:59:11 20.2 MB
[72] 云打印机.exe 2019-11-01 14:59:11 859.58 KB
[73] 哦.csv 2019-11-01 14:59:11 33.59 KB
[74] 批量改包和箱单位关系.doc 2019-11-01 14:59:11 162.5 KB
[75] 20130509 SQL 2005日志文件损坏修复.txt 2019-11-01 14:59:10 1.51 KB
[76] GhoExp.exe 2019-11-01 14:59:10 1002.83 KB
[77] google-play-services.apk 2019-11-01 14:59:10 50.36 MB
[78] 275.exe 2019-11-01 14:59:09 7.54 MB
[79] GS-LED8N.rar 2019-11-01 14:59:09 667.82 KB
[80] Google_Play_Store_v4_4_22.apk 2019-11-01 14:59:09 5.84 MB
[81] SRP-350_V3.1.9Ea_x64.exe 2019-11-01 14:59:09 3.28 MB
[82] importTemplate.xlsx 2019-11-01 14:59:09 16.73 KB
[83] 光影魔术手缩小图片步骤.docx 2019-11-01 14:59:09 903.35 KB
[84] 350.exe 2019-11-01 14:59:08 5.67 MB
[85] RestauranteC.msi 2019-11-01 14:59:08 4.76 MB
[86] bixolon_srp-350plusiii_windows_driver_v1.2.8.zip 2019-11-01 14:59:08 17.38 MB
[87] dsOrder.msi 2019-11-01 14:59:08 1.74 MB
[88] Albaran2013-italia.rar 2019-11-01 14:59:07 5.35 KB
[89] LogMeIn.msi 2019-11-01 14:59:07 19.46 MB
[90] drivethelife7_setup.exe 2019-11-01 14:59:07 21.35 MB
[91] dvr_1400_9000.rar 2019-11-01 14:59:07 33.43 MB
[92] 20100817_Client_Pre.doc 2019-11-01 14:59:06 283.5 KB
[93] MS7120-9540.pdf 2019-11-01 14:59:06 2.06 MB
[94] UPOS_Driver.exe 2019-11-01 14:59:06 11.11 MB
[95] 20090210_Finereader.doc 2019-11-01 14:59:05 594.5 KB
[96] CAM-ROBOT-20160615_ALL.bin 2019-11-01 14:59:05 6.4 MB
[97] OKI_OPOS_Driver.rar 2019-11-01 14:59:05 7.48 MB
[98] SetupDDNS.exe 2019-11-01 14:59:05 65.66 KB
[99] xampp.rar 2019-11-01 14:59:05 83.51 MB
[100] ds_shop_with_log.exe 2019-11-01 14:59:04 689.39 KB
[101] stargo-release.apk 2019-11-01 14:59:04 2.54 MB
[102] DVR_IE_V2.0.0.21_20110819.exe 2019-11-01 14:59:03 1.8 MB
[103] usb.rar 2019-11-01 14:59:03 7.43 MB
[104] 360sd_x64.exe 2019-11-01 14:59:02 33.79 MB
[105] dsOrderPublic.msi 2019-11-01 14:59:02 1.73 MB
[106] 商业管理软件出现登录界面按【确定】后不能进入主界面的解决办法.reg 2019-11-01 14:59:02 296 B
[107] FinalData3.0.zip 2019-11-01 14:59:01 4.98 MB
[108] oki206-406.rar 2019-11-01 14:59:01 806.86 KB
[109] t9-3lines.xlsx 2019-11-01 14:59:01 6.64 KB
[110] 20090210 中讯科技 商业管理软件扫描输入单据处理步骤.doc 2019-11-01 14:59:00 594.5 KB
[111] 1005.exe 2019-11-01 14:58:59 3.48 MB
[112] DDNS2016.exe 2019-11-01 14:58:59 233.76 KB
[113] H50FF0FBE_0623205222.apk 2019-11-01 14:58:59 4.88 MB
[114] APP申请资料清单.xls 2019-11-01 14:58:58 122 KB
[115] Albaran2013-qiang.rar 2019-11-01 14:58:58 5.17 KB
[116] hot.png 2019-11-01 14:58:58 14.51 KB
[117] pos-T160.rar 2019-11-01 14:58:58 3.52 MB
[118] test.PNG 2019-11-01 14:58:58 71.81 KB